EW8832 Weather Reports


Display with metric or nautical units.
time (UTC)temp
F
wind
direction
speed
MPH
gust
MPH
rain 1hr
in
rain 24hr
in
rain mn
in
humidity
%
barometer
mb
20260902170541 93 260 5.0 13.0 0.00 0.00 0.00 46 1013.6
20260902170045 92 142 10.0 12.0 0.00 0.00 0.00 47 1013.6
20260902165039 92 175 4.0 11.0 0.00 0.00 0.00 47 1013.8
20260902164538 92 176 6.0 11.0 0.00 0.00 0.00 48 1013.9
20260902164036 92 221 6.0 9.0 0.00 0.00 0.00 48 1014.0
20260902163535 92 187 5.0 12.0 0.00 0.00 0.00 49 1014.0
20260902163038 92 213 8.0 12.0 0.00 0.00 0.00 49 1014.0
20260902162533 91 241 1.0 8.0 0.00 0.00 0.00 50 1014.0
20260902162031 91 228 5.0 8.0 0.00 0.00 0.00 50 1014.1
20260902161530 90 224 1.0 8.0 0.00 0.00 0.00 51 1014.0
20260902161031 90 223 5.0 10.0 0.00 0.00 0.00 52 1014.1
20260902160529 90 259 4.0 10.0 0.00 0.00 0.00 52 1014.1
20260902160028 90 182 4.0 9.0 0.00 0.00 0.00 53 1014.1
20260902155032 89 175 3.0 9.0 0.00 0.00 0.00 54 1014.2
20260902154533 89 290 4.0 9.0 0.00 0.00 0.00 54 1014.2
20260902154028 89 187 3.0 10.0 0.00 0.00 0.00 53 1014.2
20260902153526 89 207 4.0 10.0 0.00 0.00 0.00 54 1014.1
20260902153027 89 188 5.0 9.0 0.00 0.00 0.00 53 1014.1
20260902152525 89 234 4.0 9.0 0.00 0.00 0.00 54 1014.1
20260902152029 88 179 5.0 11.0 0.00 0.00 0.00 55 1014.2
20260902151524 88 204 6.0 11.0 0.00 0.00 0.00 55 1014.2
20260902151022 87 290 3.0 9.0 0.00 0.00 0.00 56 1014.2
20260902150522 87 208 4.0 11.0 0.00 0.00 0.00 56 1014.2
20260902150021 87 198 2.0 9.0 0.00 0.00 0.00 57 1014.2
20260902145019 86 219 4.0 8.0 0.00 0.00 0.00 57 1014.1
20260902144521 86 215 3.0 10.0 0.00 0.00 0.00 58 1014.1
20260902144018 86 203 6.0 10.0 0.00 0.00 0.00 58 1014.2
20260902143518 86 252 3.0 7.0 0.00 0.00 0.00 59 1014.2
20260902143017 86 184 4.0 9.0 0.00 0.00 0.00 59 1014.2
20260902142516 85 262 2.0 9.0 0.00 0.00 0.00 60 1014.2
20260902142016 85 221 2.0 7.0 0.00 0.00 0.00 61 1014.2
20260902141514 85 265 2.0 8.0 0.00 0.00 0.00 61 1014.2
20260902141013 84 205 4.0 8.0 0.00 0.00 0.00 60 1014.2
20260902140512 84 146 3.0 7.0 0.00 0.00 0.00 62 1014.2
20260902140011 83 200 4.0 9.0 0.00 0.00 0.00 62 1014.2
20260902135011 83 213 3.0 8.0 0.00 0.00 0.00 63 1014.2
20260902134508 83 172 3.0 7.0 0.00 0.00 0.00 64 1014.1
20260902134008 83 174 4.0 8.0 0.00 0.00 0.00 64 1014.0
20260902133508 83 181 6.0 8.0 0.00 0.00 0.00 63 1014.0
20260902133007 82 187 4.0 7.0 0.00 0.00 0.00 64 1014.0
20260902132505 82 182 2.0 6.0 0.00 0.00 0.00 65 1014.0
20260902132004 82 191 3.0 6.0 0.00 0.00 0.00 65 1014.1
20260902131503 82 173 3.0 5.0 0.00 0.00 0.00 66 1014.1
20260902131003 81 215 0.0 4.0 0.00 0.00 0.00 68 1014.0
20260902130502 81 187 2.0 4.0 0.00 0.00 0.00 69 1014.0
20260902130001 80 150 0.0 0.0 0.00 0.00 0.00 71 1014.1
20260902125001 79 150 0.0 0.0 0.00 0.00 0.00 73 1014.0
20260902124501 78 150 0.0 0.0 0.00 0.00 0.00 74 1014.0
20260902124100 77 150 0.0 0.0 0.00 0.00 0.00 76 1014.0
20260902123600 76 150 0.0 0.0 0.00 0.00 0.00 76 1013.9
20260902123134 76 150 0.0 0.0 0.00 0.00 0.00 77 1013.9
20260902122601 75 150 0.0 0.0 0.00 0.00 0.00 78 1013.8
20260902122057 75 150 0.0 0.0 0.00 0.00 0.00 78 1013.7
20260902121600 75 150 0.0 0.0 0.00 0.00 0.00 78 1013.6
20260902121056 75 150 0.0 0.0 0.00 0.00 0.00 79 1013.6
20260902120556 74 150 0.0 0.0 0.00 0.00 0.00 79 1013.6
20260902120106 74 150 0.0 0.0 0.00 0.00 0.00 79 1013.5
20260902115056 75 150 0.0 0.0 0.00 0.00 0.00 78 1013.4
20260902114553 75 150 0.0 0.0 0.00 0.00 0.00 78 1013.3
20260902114052 75 150 0.0 0.0 0.00 0.00 0.00 78 1013.3
20260902113551 75 150 0.0 0.0 0.00 0.00 0.00 77 1013.3
20260902113151 75 150 0.0 0.0 0.00 0.00 0.00 78 1013.2
20260902112550 75 150 0.0 0.0 0.00 0.00 0.00 78 1013.2
20260902112050 75 150 0.0 0.0 0.00 0.00 0.00 77 1013.1
20260902111556 75 150 0.0 0.0 0.00 0.00 0.00 76 1013.1
20260902111047 75 150 0.0 0.0 0.00 0.00 0.00 76 1013.1
20260902110548 76 150 0.0 0.0 0.00 0.00 0.00 76 1013.0
20260902110046 76 150 0.0 0.0 0.00 0.00 0.00 75 1013.1
20260902105049 76 150 0.0 0.0 0.00 0.00 0.00 75 1013.0
20260902104547 76 150 0.0 0.0 0.00 0.00 0.00 75 1012.9
20260902104046 76 150 0.0 0.0 0.00 0.00 0.00 75 1012.9
20260902103545 76 150 0.0 1.0 0.00 0.00 0.00 75 1012.8
20260902103047 76 150 0.0 2.0 0.00 0.00 0.00 75 1012.8
20260902102545 76 150 0.0 3.0 0.00 0.00 0.00 75 1012.8
20260902102045 76 150 2.0 5.0 0.00 0.00 0.00 75 1012.7
20260902101544 76 150 2.0 6.0 0.00 0.00 0.00 75 1012.8
20260902101044 76 150 2.0 5.0 0.00 0.00 0.00 75 1012.7
20260902100544 76 163 4.0 6.0 0.00 0.00 0.00 75 1012.7
20260902100052 76 168 1.0 4.0 0.00 0.00 0.00 74 1012.8
20260902095042 77 168 1.0 3.0 0.00 0.00 0.00 73 1012.7
20260902094542 77 168 0.0 2.0 0.00 0.00 0.00 73 1012.8
20260902094041 77 168 0.0 1.0 0.00 0.00 0.00 72 1012.8
20260902093541 77 168 0.0 2.0 0.00 0.00 0.00 73 1012.8
20260902093041 77 168 0.0 2.0 0.00 0.00 0.00 73 1012.7
20260902092544 77 168 0.0 2.0 0.00 0.00 0.00 73 1012.8
20260902092041 77 168 0.0 2.0 0.00 0.00 0.00 73 1012.8
20260902091544 77 168 0.0 0.0 0.00 0.00 0.00 73 1012.8
20260902091040 77 168 0.0 0.0 0.00 0.00 0.00 73 1012.8
20260902090542 77 168 0.0 0.0 0.00 0.00 0.00 73 1012.7
20260902090040 77 168 0.0 0.0 0.00 0.00 0.00 72 1012.7
20260902085039 77 168 0.0 0.0 0.00 0.00 0.00 72 1012.7
20260902084540 77 168 0.0 2.0 0.00 0.00 0.00 72 1012.8
20260902084042 77 168 0.0 3.0 0.00 0.00 0.00 72 1012.7
20260902083538 78 167 1.0 5.0 0.00 0.00 0.00 71 1012.7
20260902083037 78 168 3.0 5.0 0.00 0.00 0.00 71 1012.7
20260902082537 78 168 3.0 5.0 0.00 0.00 0.00 71 1012.7
20260902082037 78 168 4.0 5.0 0.00 0.00 0.00 71 1012.7
20260902081537 78 168 3.0 5.0 0.00 0.00 0.00 70 1012.7
20260902081035 79 168 1.0 3.0 0.00 0.00 0.00 69 1012.7
20260902080535 79 168 0.0 0.0 0.00 0.00 0.00 68 1012.7
20260902080035 79 168 0.0 0.0 0.00 0.00 0.00 68 1012.8
20260902075035 79 168 0.0 3.0 0.00 0.00 0.00 68 1012.7
20260902074540 79 168 0.0 3.0 0.00 0.00 0.00 68 1012.6
20260902074035 79 167 1.0 3.0 0.00 0.00 0.00 68 1012.6
20260902073534 79 166 1.0 5.0 0.00 0.00 0.00 68 1012.6
20260902073033 79 165 2.0 5.0 0.00 0.00 0.00 68 1012.6
20260902072534 79 165 3.0 5.0 0.00 0.00 0.00 68 1012.6
20260902072036 80 167 3.0 5.0 0.00 0.00 0.00 67 1012.7
20260902071533 80 167 2.0 5.0 0.00 0.00 0.00 67 1012.7
20260902071033 79 167 2.0 7.0 0.00 0.00 0.00 68 1012.7
20260902070534 79 158 3.0 7.0 0.00 0.00 0.00 68 1012.8
20260902070032 79 163 3.0 5.0 0.00 0.00 0.00 68 1012.8
20260902065033 79 163 1.0 3.0 0.00 0.00 0.00 69 1012.8
20260902064531 78 163 1.0 2.0 0.00 0.00 0.00 69 1012.8
20260902064032 78 162 0.0 6.0 0.00 0.00 0.00 69 1012.8
20260902063534 79 162 3.0 6.0 0.00 0.00 0.00 68 1012.8
20260902063039 79 162 2.0 5.0 0.00 0.00 0.00 67 1012.7
20260902062532 79 162 3.0 5.0 0.00 0.00 0.00 67 1012.7
20260902062027 80 163 3.0 5.0 0.00 0.00 0.00 66 1012.7
20260902061526 80 163 2.0 5.0 0.00 0.00 0.00 65 1012.7
20260902061025 80 163 3.0 5.0 0.00 0.00 0.00 65 1012.7
20260902060523 81 163 3.0 6.0 0.00 0.00 0.00 64 1012.8
20260902060023 81 165 4.0 6.0 0.00 0.00 0.00 63 1012.7
20260902055023 81 167 4.0 6.0 0.00 0.00 0.00 63 1012.8
20260902054528 81 171 3.0 7.0 0.00 0.00 0.00 63 1012.8
20260902054025 81 175 3.0 7.0 0.00 0.00 0.00 63 1012.7
20260902053522 81 176 4.0 8.0 0.00 0.00 0.00 63 1012.7
20260902053022 81 163 4.0 8.0 0.00 0.00 0.00 63 1012.7
20260902052521 81 178 3.0 4.0 0.00 0.00 0.00 63 1012.7
20260902052024 81 171 2.0 4.0 0.00 0.00 0.00 63 1012.7
20260902051521 81 167 3.0 6.0 0.00 0.00 0.00 62 1012.7
20260902051021 81 173 2.0 5.0 0.00 0.00 0.00 62 1012.7
20260902050523 81 177 2.0 4.0 0.00 0.00 0.00 62 1012.7
20260902050048 81 177 2.0 4.0 0.00 0.00 0.00 62 1012.7
20260902045019 81 171 2.0 5.0 0.00 0.00 0.00 62 1012.7
20260902044519 81 171 3.0 5.0 0.00 0.00 0.00 62 1012.6
20260902044018 81 173 2.0 6.0 0.00 0.00 0.00 62 1012.6
20260902043518 81 157 2.0 5.0 0.00 0.00 0.00 61 1012.5
20260902043029 82 154 2.0 6.0 0.00 0.00 0.00 61 1012.5
20260902042523 82 153 2.0 6.0 0.00 0.00 0.00 60 1012.4
20260902042019 82 151 3.0 5.0 0.00 0.00 0.00 60 1012.4
20260902041518 82 150 2.0 5.0 0.00 0.00 0.00 59 1012.4
20260902041017 83 149 3.0 5.0 0.00 0.00 0.00 59 1012.4
20260902040518 83 149 3.0 6.0 0.00 0.00 0.00 59 1012.4
20260902040020 83 151 2.0 5.0 0.00 0.00 0.00 58 1012.4
20260902035018 83 148 2.0 5.0 0.00 0.00 0.00 58 1012.4
20260902034522 83 149 3.0 6.0 0.00 0.00 0.00 57 1012.4
20260902034017 84 149 3.0 6.0 0.00 0.00 0.00 57 1012.4
20260902033518 84 143 4.0 7.0 0.00 0.00 0.00 56 1012.3
20260902033017 85 143 4.0 7.0 0.00 0.00 0.00 55 1012.3
20260902032519 85 146 4.0 7.0 0.00 0.00 0.00 55 1012.2
20260902032016 86 146 4.0 8.0 0.00 0.00 0.00 54 1012.2
20260902031519 86 148 5.0 9.0 0.00 0.00 0.00 53 1012.2
20260902031021 86 140 5.0 10.0 0.00 0.00 0.00 53 1012.1
20260902030517 86 156 6.0 10.0 0.00 0.00 0.00 53 1012.0
20260902030116 86 149 6.0 11.0 0.00 0.00 0.00 53 1012.0
20260902025016 86 155 4.0 9.0 0.00 0.00 0.00 52 1011.8
20260902024517 86 139 6.0 9.0 0.00 0.00 0.00 52 1011.7
20260902024015 86 157 5.0 9.0 0.00 0.00 0.00 51 1011.7
20260902023516 87 147 5.0 9.0 0.00 0.00 0.00 50 1011.6
20260902023016 87 160 4.0 10.0 0.00 0.00 0.00 50 1011.5
20260902022516 87 146 4.0 10.0 0.00 0.00 0.00 50 1011.4
20260902022016 87 162 6.0 10.0 0.00 0.00 0.00 50 1011.3
20260902021517 87 154 5.0 10.0 0.00 0.00 0.00 50 1011.3
20260902021015 86 159 6.0 10.0 0.00 0.00 0.00 50 1011.2
20260902020516 86 142 6.0 9.0 0.00 0.00 0.00 50 1011.2
20260902020015 87 151 4.0 7.0 0.00 0.00 0.00 49 1011.1
20260902015015 87 160 4.0 8.0 0.00 0.00 0.00 49 1011.0
20260902014514 86 156 4.0 8.0 0.00 0.00 0.00 48 1010.9
20260902014014 86 168 4.0 7.0 0.00 0.00 0.00 49 1010.8
20260902013514 86 153 4.0 6.0 0.00 0.00 0.00 49 1010.7
20260902013015 86 159 3.0 5.0 0.00 0.00 0.00 48 1010.6
20260902012514 87 159 2.0 4.0 0.00 0.00 0.00 47 1010.6
20260902012014 87 159 2.0 4.0 0.00 0.00 0.00 47 1010.6
20260902011515 88 159 2.0 5.0 0.00 0.00 0.00 46 1010.6
20260902011017 88 168 2.0 5.0 0.00 0.00 0.00 45 1010.6
20260902010513 89 169 3.0 5.0 0.00 0.00 0.00 44 1010.6
20260902010015 90 170 3.0 5.0 0.00 0.00 0.00 42 1010.6
20260902005015 91 170 3.0 5.0 0.00 0.00 0.00 42 1010.6
20260902004514 91 183 3.0 5.0 0.00 0.00 0.00 41 1010.6
20260902004013 92 169 2.0 5.0 0.00 0.00 0.00 40 1010.5
20260902003512 92 169 2.0 6.0 0.00 0.00 0.00 40 1010.6
20260902003021 93 169 2.0 6.0 0.00 0.00 0.00 39 1010.6
20260902002513 93 171 2.0 5.0 0.00 0.00 0.00 38 1010.7
20260902002015 93 163 3.0 6.0 0.00 0.00 0.00 38 1010.7
20260902001512 94 180 3.0 6.0 0.00 0.00 0.00 37 1010.7
20260902001012 94 178 3.0 6.0 0.00 0.00 0.00 37 1010.7
20260902000517 95 178 2.0 9.0 0.00 0.00 0.00 36 1010.7
20260902000013 95 179 5.0 10.0 0.00 0.00 0.00 35 1010.7
20260901235111 96 154 4.0 11.0 0.00 0.00 0.00 35 1010.7
20260901234510 96 162 7.0 11.0 0.00 0.00 0.00 34 1010.7
20260901234010 97 179 8.0 11.0 0.00 0.00 0.00 34 1010.7
20260901233509 97 178 5.0 12.0 0.00 0.00 0.00 33 1010.7
20260901233010 98 189 5.0 10.0 0.00 0.00 0.00 32 1010.8
20260901232511 98 202 5.0 12.0 0.00 0.00 0.00 32 1010.8
20260901232010 98 151 7.0 12.0 0.00 0.00 0.00 32 1010.8
20260901231510 98 165 5.0 11.0 0.00 0.00 0.00 31 1010.9
20260901231009 99 206 4.0 11.0 0.00 0.00 0.00 31 1010.9
20260901230509 99 218 4.0 8.0 0.00 0.00 0.00 31 1010.9
20260901230009 99 163 2.0 8.0 0.00 0.00 0.00 31 1011.0
20260901225012 99 188 2.0 11.0 0.00 0.00 0.00 31 1011.0
20260901224511 99 171 6.0 10.0 0.00 0.00 0.00 30 1010.9
20260901224011 99 170 5.0 10.0 0.00 0.00 0.00 29 1010.9
20260901223509 99 173 4.0 8.0 0.00 0.00 0.00 29 1010.9
20260901223009 99 211 3.0 13.0 0.00 0.00 0.00 30 1010.9
20260901222508 99 259 5.0 13.0 0.00 0.00 0.00 30 1010.9
20260901222011 99 166 3.0 9.0 0.00 0.00 0.00 30 1010.8
20260901221508 99 199 3.0 10.0 0.00 0.00 0.00 30 1010.8
20260901221011 98 207 3.0 10.0 0.00 0.00 0.00 31 1010.8
20260901220509 98 188 3.0 11.0 0.00 0.00 0.00 32 1010.8
20260901220007 99 187 5.0 11.0 0.00 0.00 0.00 32 1010.9
20260901215010 98 213 0.0 9.0 0.00 0.00 0.00 31 1010.7
20260901214507 98 196 3.0 12.0 0.00 0.00 0.00 32 1010.9
20260901214006 98 210 6.0 12.0 0.00 0.00 0.00 31 1011.0
20260901213507 98 134 5.0 11.0 0.00 0.00 0.00 31 1010.9
20260901213005 98 187 5.0 12.0 0.00 0.00 0.00 32 1011.0
20260901212505 98 105 9.0 13.0 0.00 0.00 0.00 32 1011.1
20260901212005 98 145 8.0 13.0 0.00 0.00 0.00 31 1011.1
20260901211504 98 146 4.0 11.0 0.00 0.00 0.00 33 1011.1
20260901211004 98 157 6.0 12.0 0.00 0.00 0.00 32 1011.2
20260901210504 98 205 7.0 12.0 0.00 0.00 0.00 32 1011.3
20260901210003 98 180 4.0 11.0 0.00 0.00 0.00 32 1011.3
20260901205100 98 167 3.0 11.0 0.00 0.00 0.00 34 1011.4
20260901204600 97 234 6.0 11.0 0.00 0.00 0.00 34 1011.5
20260901204058 96 248 5.0 8.0 0.00 0.00 0.00 34 1011.5
20260901203559 96 195 3.0 8.0 0.00 0.00 0.00 34 1011.7
20260901203059 95 149 4.0 10.0 0.00 0.00 0.00 35 1011.8
20260901202556 95 184 5.0 12.0 0.00 0.00 0.00 36 1011.9
20260901202055 95 150 7.0 12.0 0.00 0.00 0.00 38 1012.0
20260901201602 95 168 6.0 10.0 0.00 0.00 0.00 37 1012.0
20260901201055 96 179 7.0 10.0 0.00 0.00 0.00 37 1012.1
20260901200555 97 161 7.0 11.0 0.00 0.00 0.00 36 1012.1
20260901200054 98 248 5.0 12.0 0.00 0.00 0.00 36 1012.0
20260901195055 98 183 5.0 11.0 0.00 0.00 0.00 36 1012.2
20260901194555 97 182 5.0 9.0 0.00 0.00 0.00 36 1012.3
20260901194052 97 191 5.0 14.0 0.00 0.00 0.00 36 1012.2
20260901193551 97 129 7.0 17.0 0.00 0.00 0.00 36 1012.2
20260901193050 96 146 4.0 16.0 0.00 0.00 0.00 38 1012.4
20260901192548 95 167 2.0 7.0 0.00 0.00 0.00 41 1012.4
20260901192048 95 67 3.0 10.0 0.00 0.00 0.00 40 1012.5
20260901191605 94 94 4.0 10.0 0.00 0.00 0.00 41 1012.6
20260901191046 94 227 0.0 9.0 0.00 0.00 0.00 40 1012.7
20260901190550 95 265 6.0 9.0 0.00 0.00 0.00 39 1012.7
20260901190046 95 55 1.0 6.0 0.00 0.00 0.00 40 1012.8
20260901185045 94 138 4.0 11.0 0.00 0.00 0.00 41 1012.9
20260901184608 94 140 5.0 9.0 0.00 0.00 0.00 41 1012.9
20260901184046 95 127 4.0 8.0 0.00 0.00 0.00 39 1013.0
20260901183547 95 162 2.0 9.0 0.00 0.00 0.00 39 1013.1
20260901183050 95 11 4.0 9.0 0.00 0.00 0.00 40 1013.1
20260901182545 95 218 4.0 9.0 0.00 0.00 0.00 39 1013.3
20260901182044 95 228 5.0 9.0 0.00 0.00 0.00 40 1013.3
20260901181553 95 181 6.0 9.0 0.00 0.00 0.00 41 1013.3
20260901181044 94 167 1.0 9.0 0.00 0.00 0.00 42 1013.5
20260901180540 94 182 3.0 10.0 0.00 0.00 0.00 41 1013.6
20260901180040 94 212 1.0 8.0 0.00 0.00 0.00 43 1013.7
20260901175040 93 215 2.0 5.0 0.00 0.00 0.00 44 1013.9
20260901174552 93 198 2.0 7.0 0.00 0.00 0.00 43 1014.0
20260901174039 93 219 2.0 9.0 0.00 0.00 0.00 43 1014.1
20260901173540 93 212 5.0 10.0 0.00 0.00 0.00 43 1014.2
20260901173040 93 205 4.0 10.0 0.00 0.00 0.00 44 1014.3
20260901172539 93 272 2.0 9.0 0.00 0.00 0.00 44 1014.2
20260901172039 93 311 4.0 10.0 0.00 0.00 0.00 42 1014.2
20260901171542 93 290 5.0 10.0 0.00 0.00 0.00 42 1014.3
20260901171041 93 198 3.0 10.0 0.00 0.00 0.00 43 1014.3